Location: Hajnówka
(52.7352°N, 23.5693°E)
Time: 13:09:56
(UTC+01:00)

ISS - Visible Passes

Search period start: 21 November 2017 00:00
Search period end: 01 December 2017 00:00
Orbit: 402 x 407 km, 51.6° (Epoch: 21 November)

Date Brightness Start Highest point End Pass type
(mag) Time Alt. Az. Time Alt. Az. Time Alt. Az.
28 Nov -0.7 18:17:52 10° SSW 18:17:52 10° SSW 18:17:52 10° SSW visible
29 Nov -1.7 17:26:10 10° S 17:27:47 17° SSE 17:27:47 17° SSE visible
30 Nov -1.4 16:35:01 10° SSE 16:36:22 12° SE 16:37:38 10° ESE visible
30 Nov -1.4 18:09:06 10° SW 18:10:17 19° SW 18:10:17 19° SW visible
